Terug naar catalogus

CZ-6A DEB

ActiefPO
NORAD 61169·DEBRIS·🇨🇳 China

Gelanceerd Aug 6, 2024 vanaf Taiyuan Satellite Launch Center

Loading…

Volgende Passages (komende 24 uur)

TLE

VersSource: Space-Track

Epoch: Sep 13, 2026, 19:06 UTC

1 61169U 24140RP  26256.79643596  .00008842  00000-0  14250-2 0  9990
2 61169  88.2922 191.2142 0091313 335.0204  24.6606 14.68600384109813

Volg CZ-6A DEB in realtime met AllMySat

Download on the App Store